Weather History for KPNS - September, 2014

Change the Weather History Date:

Tuesday, September 30, 2014

  Actual Average Record
Temperature  
Mean Temperature 75 °F 75 °F  
Max Temperature 80 °F 83 °F 96 °F (1904)
Min Temperature 69 °F 66 °F 46 °F (1967)
Cooling Degree Days 10 10  
Month to date cooling degree days 401 403  
Year to date cooling degree days 2357 2370  
Growing Degree Days 26 (Base 50)    
Moisture  
Dew Point 69 °F    
Average Humidity 78    
Maximum Humidity 93    
Minimum Humidity 62    
Precipitation  
Precipitation 0.00 in 0.18 in 5.01 in (1898)
Month to date precipitation 5.28 5.98  
Year to date precipitation 74.03 50.75  
Sea Level Pressure  
Sea Level Pressure 29.89 in    
Wind  
Wind Speed 5 mph (NE)    
Max Wind Speed 10 mph    
Max Gust Speed 14 mph    
Visibility 10 miles    
Events      
T = Trace of Precipitation, MM = Missing Value Source: NWS Daily Summary

Daily Weather History Graph

Daily Weather History Graph

Search for Another Location

Airport or City:

Trip Planner

Search our weather history database for the weather conditions in past years. The results will help you decide how hot, cold, wet, or windy it might be!

Date:

Astronomy

Sep. 30, 2014 Rise Set
Actual Time 6:41 AM CDT 6:35 PM CDT
Civil Twilight 6:17 AM CDT 6:59 PM CDT
Nautical Twilight 5:49 AM CDT 7:27 PM CDT
Astronomical Twilight 5:21 AM CDT 7:55 PM CDT
Moon 12:31 PM CDT (9/30) 11:23 PM CDT (9/30)
Length of Visible Light 12h 41m
Length of Day
11h 53m
Waxing Crescent, 38% of the Moon is Illuminated
Sep 30
Waxing Crescent
Oct 1
First Quarter
Oct 8
Full
Oct 15
Last Quarter
Oct 23
New

Hourly Weather History & Observations

Time (CDT) Temp. Heat Index Dew Point Humidity Pressure Visibility Wind Dir Wind Speed Gust Speed Precip Events Conditions
12:53 AM 73.0 °F - 70.0 °F 90% 29.86 in 10.0 mi NE 4.6 mph - N/A   Clear
1:53 AM 73.0 °F - 70.0 °F 90% 29.87 in 10.0 mi NNE 4.6 mph - N/A   Clear
2:49 AM 71.6 °F - 69.8 °F 94% 29.86 in 10.0 mi NE 4.6 mph - N/A   Scattered Clouds
2:53 AM 72.0 °F - 70.0 °F 93% 29.86 in 10.0 mi NNE 4.6 mph - N/A   Scattered Clouds
3:07 AM 72.0 °F - 70.0 °F 93% 29.86 in 10.0 mi NNE 4.6 mph - N/A   Mostly Cloudy
3:53 AM 71.1 °F - 69.1 °F 93% 29.86 in 10.0 mi NE 5.8 mph - N/A   Scattered Clouds
4:51 AM 71.6 °F - 69.8 °F 94% 29.87 in 10.0 mi Variable 6.9 mph - N/A   Mostly Cloudy
4:53 AM 71.1 °F - 69.1 °F 93% 29.88 in 10.0 mi Variable 5.8 mph - N/A   Mostly Cloudy
5:53 AM 71.1 °F - 69.1 °F 93% 29.89 in 10.0 mi NE 5.8 mph - N/A   Overcast
6:53 AM 71.1 °F - 68.0 °F 90% 29.90 in 10.0 mi NE 5.8 mph - N/A   Overcast
7:51 AM 71.6 °F - 69.8 °F 94% 29.91 in 10.0 mi NNE 5.8 mph - N/A   Overcast
7:53 AM 72.0 °F - 68.0 °F 87% 29.91 in 10.0 mi NNE 6.9 mph - N/A   Overcast
8:53 AM 73.0 °F - 68.0 °F 84% 29.92 in 10.0 mi ENE 6.9 mph - N/A   Overcast
9:53 AM 75.0 °F - 68.0 °F 79% 29.92 in 10.0 mi NE 6.9 mph - N/A   Overcast
10:53 AM 77.0 °F - 68.0 °F 74% 29.93 in 10.0 mi Variable 5.8 mph - N/A   Overcast
11:53 AM 77.0 °F - 66.9 °F 71% 29.92 in 10.0 mi ENE 5.8 mph - N/A   Overcast
12:53 PM 79.0 °F - 66.9 °F 66% 29.91 in 10.0 mi NNE 6.9 mph - N/A   Overcast
1:10 PM 81.0 °F 85.8 °F 73.0 °F 77% 29.87 in 10.0 mi NNE 8.1 mph - N/A   Scattered Clouds
1:53 PM 79.0 °F - 68.0 °F 69% 29.88 in 10.0 mi NE 5.8 mph - N/A   Overcast
2:53 PM 80.1 °F 82.3 °F 66.9 °F 64% 29.87 in 10.0 mi Variable 6.9 mph - N/A   Overcast
3:53 PM 79.0 °F - 66.9 °F 66% 29.86 in 10.0 mi NNE 6.9 mph - N/A   Overcast
4:53 PM 78.1 °F - 66.9 °F 68% 29.87 in 10.0 mi NE 4.6 mph - N/A   Overcast
5:53 PM 77.0 °F - 68.0 °F 74% 29.87 in 10.0 mi NE 6.9 mph - N/A   Overcast
6:53 PM 75.9 °F - 66.9 °F 74% 29.88 in 10.0 mi NE 4.6 mph - N/A   Overcast
7:53 PM 73.9 °F - 66.0 °F 76% 29.89 in 10.0 mi Calm Calm - N/A   Partly Cloudy
8:53 PM 75.0 °F - 71.1 °F 87% 29.88 in 10.0 mi Calm Calm - N/A   Partly Cloudy
9:53 PM 72.0 °F - 66.9 °F 84% 29.90 in 10.0 mi Calm Calm - N/A   Clear
10:53 PM 71.1 °F - 68.0 °F 90% 29.91 in 10.0 mi East 4.6 mph - N/A   Clear
11:53 PM 73.9 °F - 70.0 °F 87% 29.87 in 10.0 mi NE 4.6 mph - N/A   Clear